This is the latest recevied weather packets stored in our database for station/object K0SNA. If no packets are shown the sender has not sent any weather packets the latest 1 day(s).
| Time | Temp. | Humidity | Pressure | Rain* | Wind** | Luminosity | Snow |
|---|---|---|---|---|---|---|---|
| 1778006725 | 10° C | 40% | 1011.4 hPa | 0 mm | 2.24 m/s, 311° | 416 W/m² | - |
| 1778006422 | 10° C | 41% | 1011.4 hPa | 0 mm | 1.34 m/s, 257° | 343 W/m² | - |
| 1778006118 | 10° C | 40% | 1011.3 hPa | 0 mm | 2.68 m/s, 247° | 668 W/m² | - |
| 1778005816 | 9.44° C | 41% | 1011.3 hPa | 0 mm | 1.79 m/s, 248° | 415 W/m² | - |
| 1778005512 | 9.44° C | 40% | 1011.3 hPa | 0 mm | 2.24 m/s, 277° | 904 W/m² | - |
| 1778005209 | 10° C | 40% | 1011.4 hPa | 0 mm | 1.34 m/s, 249° | 307 W/m² | - |
| 1778004905 | 8.89° C | 39% | 1011.4 hPa | 0 mm | 2.24 m/s, 292° | 315 W/m² | - |
| 1778004603 | 8.89° C | 40% | 1011.4 hPa | 0 mm | 1.79 m/s, 269° | 282 W/m² | - |
| 1778004298 | 9.44° C | 39% | 1011.2 hPa | 0 mm | 2.24 m/s, 26° | 262 W/m² | - |
| 1778003995 | 9.44° C | 39% | 1011.7 hPa | 0 mm | 2.24 m/s, 288° | 351 W/m² | - |
| 1778003691 | 9.44° C | 39% | 1011.4 hPa | 0 mm | 1.79 m/s, 342° | 316 W/m² | - |
| 1778003388 | 9.44° C | 38% | 1011.5 hPa | 0 mm | 2.68 m/s, 336° | 323 W/m² | - |
| 1778003085 | 8.89° C | 39% | 1011.6 hPa | 0 mm | 2.68 m/s, 220° | 318 W/m² | - |
| 1778002781 | 10° C | 39% | 1011.6 hPa | 0 mm | 2.68 m/s, 307° | 358 W/m² | - |
| 1778002478 | 10° C | 40% | 1011.4 hPa | 0 mm | 0.89 m/s, 305° | 290 W/m² | - |
| 1778002175 | 8.89° C | 40% | 1011.7 hPa | 0 mm | 1.34 m/s, 224° | 785 W/m² | - |
| 1778001874 | 8.89° C | 40% | 1011.6 hPa | 0 mm | 1.34 m/s, 278° | 314 W/m² | - |
| 1778001572 | 8.33° C | 41% | 1011.6 hPa | 0 mm | 0.45 m/s, 199° | 408 W/m² | - |
| 1778001270 | 8.33° C | 41% | 1011.5 hPa | 0 mm | 3.13 m/s, 353° | 219 W/m² | - |
| 1778000966 | 8.33° C | 40% | 1011.7 hPa | 0 mm | 1.34 m/s, 258° | 264 W/m² | - |
| 1778000663 | 8.33° C | 40% | 1011.5 hPa | 0 mm | 1.34 m/s, 258° | 481 W/m² | - |
| 1778000359 | 8.33° C | 41% | 1011.4 hPa | 0 mm | 1.34 m/s, 8° | 242 W/m² | - |
| 1778000055 | 8.33° C | 40% | 1011.6 hPa | 0 mm | 1.79 m/s, 326° | 309 W/m² | - |
| 1777999750 | 8.33° C | 41% | 1011.9 hPa | 0 mm | 2.24 m/s, 284° | 246 W/m² | - |
| 1777999447 | 8.33° C | 39% | 1011.6 hPa | 0 mm | 0.89 m/s, 285° | 914 W/m² | - |
* Rain latest hour (hover to see other rain measurements)
** Current wind speed in m/s (hover to see current wind gust speed)